DELTA 1 DEB

Satellite information

Favourite Embed

Satellite Type and Status

DEBRISIN ORBIT

Key statistics

Satellite DELTA 1 DEB at a glance.

Uptime

17291

Days in orbit

Revolutions

≈ 14.2

Per day

Orbit

SSO

Sun Synchronous Orbit

Inclination

99.0

Latest

Satellite identification and parameters

Extended collection of information and parameters for DELTA 1 DEB.

Object identification

Identified? True

Debris? True

Object name: DELTA 1 DEB

International designator: 1978-026JZ

Object number (NORAD): 37662

Object ID (CCSDS): 37662

Country: UNITED STATES OF AMERICA (US)

Current information (Y/N): Y

RCS size: SMALL

Orbital parameters

Period: 101.7 minutes

Inclination: 99.0324 deg

SMA: 7217.269 km

Apoapsis: 864.215 km

Periapsis: 814.052 km

RAAN: 196.0531 deg

Eccentricy: 0.0034752

Argument of periapsis: 10.3216 deg

Mean anomaly: 349.8663 deg

Mean motion: 14.15935382 rev/day

Mean motion (dot): 0.00000284 rev/day2

B* drag term: 0.0001664 1/REarth

Two-line elements (TLE)

Creation date: July 3, 2025, 5:26 p.m.

Reference frame: TEME

Reference center: EARTH

Epoch: July 3, 2025, 7:03 a.m. UTC

TLE line 0: 0 DELTA 1 DEB

TLE line 1: 1 37662U 78026JZ 25184.29413491 .00000284 00000-0 16640-3 0 9994

TLE line 2: 2 37662 99.0324 196.0531 0034752 10.3216 349.8663 14.15935382617275

Live tracking on map

Real-time ground track for satellite DELTA 1 DEB.

In-orbit conjunctions

A list of the most updated potential collisions computed for object DELTA 1 DEB.

Target Orbit TCA Probability of collision Miss distance Type
FENGYUN 1C DEB SSO 2025-06-21 10:49:46 0.0004558853 98.0 (m) DEBRIS
COSMOS 1275 DEB LEO 2024-11-14 15:01:40 0.0004301384 793.0 (m) DEBRIS

Associated space launch

Earth observation satellite

DELTA 1 DEB was lifted into orbit during the mission ‘Delta 2910 | Landsat 3’, on board a Delta 2910 space rocket.

The launch took place on March 5, 1978, 5:54 p.m. from Space Launch Complex 2W.

For more information about the launch, click the button.

Launch to space Delta 2910 | Landsat 3
Delta 2910 | Landsat 3

Agency: N/A

Status: Launch Successful

Launch date: March 5, 1978, 5:54 p.m. UTC

Rocket: Delta 2910

Launch pad: Space Launch Complex 2W

Location: Vandenberg SFB, CA, USA

...

Latest news about this satellite

There are no fresh news available about this satellite. Check back as we update our databases every day.


Newsletter sign-up

Weekly statistics, charts and insights to help you stay on top of the space industry.